Location: Staunton
(38.1490°N, 79.0720°W)
Time: 20:49:16
(UTC-04:00)

ISS - Pass Details

Date: 16 September 2018
Orbit: 403 x 408 km, 51.6° (Epoch: 25 September)

Event Time Altitude Azimuth Distance (km) Brightness Sun altitude
Exits shadow 04:21:28 13° 47° (NE) 1,291 -0.5 -30.1°
Drops below altitude 10° 04:22:17 10° 60° (ENE) 1,459 -0.1 -30.0°
Sets 04:25:00 0° 85° (E) 2,314 1.0 -29.5°
